This is the latest recevied weather packets stored in our database for station/object W0AKO. If no packets are shown the sender has not sent any weather packets the latest 10 day(s).
| Time | Temp. | Humidity | Pressure | Rain* | Wind** | Luminosity | Snow |
|---|---|---|---|---|---|---|---|
| 1777230644 | 15° C | 10% | 1009.4 hPa | 0 mm | - | 170 W/m² | - |
| 1777230339 | 15° C | 10% | 1009.6 hPa | 0 mm | - | 169 W/m² | - |
| 1777230037 | 15° C | 10% | 1009.7 hPa | 0 mm | - | 157 W/m² | - |
| 1777229733 | 15° C | 10% | 1009.6 hPa | 0 mm | - | 164 W/m² | - |
| 1777229430 | 14.44° C | 10% | 1009.5 hPa | 0 mm | - | 136 W/m² | - |
| 1777229127 | 13.89° C | 10% | 1009.7 hPa | 0 mm | - | 104 W/m² | - |
| 1777228824 | 13.89° C | 10% | 1009.6 hPa | 0 mm | - | 92 W/m² | - |
| 1777228520 | 13.89° C | 10% | 1009.6 hPa | 0 mm | - | 87 W/m² | - |
| 1777228216 | 14.44° C | 10% | 1010.1 hPa | 0 mm | - | 104 W/m² | - |
| 1777227915 | 13.89° C | 10% | 1009.9 hPa | 0 mm | - | 117 W/m² | - |
| 1777227611 | 13.89° C | 10% | 1009.6 hPa | 0 mm | - | 124 W/m² | - |
| 1777227307 | 13.89° C | 10% | 1009.4 hPa | 0 mm | - | 140 W/m² | - |
| 1777227004 | 13.89° C | 10% | 1009.4 hPa | 0 mm | - | 180 W/m² | - |
| 1777226703 | 13.89° C | 10% | 1009.3 hPa | 0 mm | - | 319 W/m² | - |
| 1777226398 | 13.89° C | 10% | 1009.2 hPa | 0 mm | - | 166 W/m² | - |
| 1777226094 | 13.33° C | 10% | 1009.4 hPa | 0 mm | - | 123 W/m² | - |
| 1777225790 | 13.33° C | 10% | 1009.4 hPa | 0 mm | - | 131 W/m² | - |
| 1777225487 | 13.33° C | 10% | 1009.5 hPa | 0 mm | - | 157 W/m² | - |
| 1777225185 | 12.78° C | 10% | 1009.3 hPa | 0 mm | - | 177 W/m² | - |
| 1777224881 | 12.78° C | 10% | 1009.3 hPa | 0 mm | - | 148 W/m² | - |
| 1777224577 | 12.78° C | 10% | 1009.4 hPa | 0 mm | - | 128 W/m² | - |
| 1777224273 | 12.78° C | 10% | 1009.3 hPa | 0 mm | - | 104 W/m² | - |
| 1777223969 | 12.78° C | 10% | 1009.2 hPa | 0 mm | - | 139 W/m² | - |
| 1777223667 | 12.78° C | 10% | 1009.4 hPa | 0 mm | - | 160 W/m² | - |
| 1777223362 | 12.78° C | 10% | 1009.3 hPa | 0 mm | - | 166 W/m² | - |
* Rain latest hour (hover to see other rain measurements)
** Current wind speed in m/s (hover to see current wind gust speed)